Aswan, Egypt

3:01 AM EET on September 23, 2017 (GMT +0200)
Aswan

Weather History for HESN - July, 2013

Change the Weather History Date:

Wednesday, July 3, 2013

  Actual Average Record
Temperature  
Mean Temperature 91 °F -  
Max Temperature 104 °F 104 °F 111 °F (2002)
Min Temperature 78 °F 81 °F 73 °F (2007)
Cooling Degree Days 26    
Growing Degree Days 41 (Base 50)    
Moisture  
Dew Point 46 °F    
Average Humidity 21    
Maximum Humidity 34    
Minimum Humidity 7    
Precipitation  
Precipitation 0.00 in 0.00 in - ()
Sea Level Pressure  
Sea Level Pressure 29.68 in    
Wind  
Wind Speed 8 mph ()    
Max Wind Speed 14 mph    
Max Gust Speed -    
Visibility 6.0 miles    
Events      
Averages and records for this station are not official NWS values.
T = Trace of Precipitation, MM = Missing Value Source: Averaged Metar Reports

Daily Weather History Graph

Daily Weather History Graph

Search for Another Location

Airport or City:

Trip Planner

Search our weather history database for the weather conditions in past years. The results will help you decide how hot, cold, wet, or windy it might be!

Date:

Astronomy

Jul. 03, 2013 Rise Set
Actual Time 5:05 AM EET 6:40 PM EET
Civil Twilight 4:40 AM EET 7:05 PM EET
Nautical Twilight 4:09 AM EET 7:36 PM EET
Astronomical Twilight 3:38 AM EET 8:08 PM EET
Moon 1:17 AM EET (7/3) 2:43 PM EET (7/3)
Length of Visible Light 14h 25m
Length of Day
13h 34m
Waning Crescent, 20% of the Moon is Illuminated
Jul 3
Waning Crescent
Jul 8
New
Jul 16
First Quarter
Jul 22
Full
Jul 29
Last Quarter

Hourly Weather History & Observations

Time (EET) Temp. Dew Point Humidity Pressure Visibility Wind Dir Wind Speed Gust Speed Precip Events Conditions
12:00 AM 86.0 °F 44.6 °F 23% 29.71 in - NW 11.5 mph - N/A   Clear
1:00 AM 84.2 °F 44.6 °F 25% 29.71 in - NW 13.8 mph - N/A   Clear
2:00 AM 82 °F 46 °F 18% 29.67 in 6 mi NW 10.4 mph - -  
2:00 AM 82.4 °F 46.4 °F 28% 29.68 in - NW 10.4 mph - N/A   Clear
3:00 AM 80.6 °F 46.4 °F 30% 29.68 in - NW 10.4 mph - N/A   Clear
4:00 AM 78.8 °F 46.4 °F 32% 29.71 in - NW 9.2 mph - N/A   Clear
5:00 AM 78.8 °F 48.2 °F 34% 29.71 in - NW 5.8 mph - N/A   Clear
6:00 AM 78.8 °F 48.2 °F 34% 29.71 in - NNW 3.5 mph - N/A   Clear
7:00 AM 84.2 °F 50.0 °F 30% 29.71 in - NW 6.9 mph - N/A   Clear
8:00 AM 86 °F 50 °F 19% 29.70 in 6 mi North 8.1 mph - -  
8:00 AM 86.0 °F 50.0 °F 29% 29.74 in - North 8.1 mph - N/A   Clear
9:00 AM 87.8 °F 50.0 °F 27% 29.74 in - North 9.2 mph - N/A   Clear
10:00 AM 91.4 °F 50.0 °F 24% 29.74 in - North 8.1 mph - N/A   Clear
11:00 AM 93.2 °F 46.4 °F 20% 29.71 in - NNE 5.8 mph - N/A   Clear
12:00 PM 96.8 °F 48.2 °F 19% 29.71 in - West 3.5 mph - N/A   Clear
1:00 PM 100.4 °F 46.4 °F 16% 29.68 in - SSE 4.6 mph - N/A   Clear
2:00 PM 102 °F 44 °F 7% 29.61 in 6 mi West 3.5 mph - -  
2:00 PM 102.2 °F 44.6 °F 14% 29.68 in - West 3.5 mph - N/A   Clear
3:00 PM 104.0 °F 42.8 °F 12% 29.65 in - South 4.6 mph - N/A   Clear
4:00 PM 102.2 °F 48.2 °F 16% 29.62 in - SE 11.5 mph - N/A   Clear
5:00 PM 100.4 °F 46.4 °F 16% 29.62 in - SE 11.5 mph - N/A   Clear
6:00 PM 100.4 °F 48.2 °F 17% 29.62 in - SE 8.1 mph - N/A   Clear
7:00 PM 96.8 °F 46.4 °F 18% 29.65 in - SE 4.6 mph - N/A   Clear
8:00 PM 98 °F 42 °F 8% 29.61 in 6 mi WNW 9.2 mph - -  
8:00 PM 98.6 °F 42.8 °F 15% 29.65 in - WNW 9.2 mph - N/A   Clear
9:00 PM 95.0 °F 39.2 °F 14% 29.68 in - West 8.1 mph - N/A   Clear
10:00 PM 93.2 °F 39.2 °F 15% 29.68 in - West 5.8 mph - N/A   Clear
11:00 PM 91.4 °F 44.6 °F 20% 29.68 in - WNW 8.1 mph - N/A   Clear